Regional Weather Roundup
Issued by NWS

Home | Current Version | Previous Version | Graphics & Text | Print | Product List | Glossary Off
Versions: 1 2 3 4 5 6 7 8 9 10 11 12 13 14 15 16 17 18 19 20 21 22 23 24 25 26 27 28 29 30 31 32 33 34 35 36 37 38 39 40 41 42 43 44 45 46 47 48 49 50

000
ASUS43 KMPX 090901
RWRMN
WEATHER ROUNDUP FOR MINNESOTA
NATIONAL WEATHER SERVICE TWIN CITIES/CHANHASSEN MN
300 AM CST FRI DEC 09 2016


NOTE: "FAIR" INDICATES FEW OR NO CLOUDS BELOW 12,000 FEET WITH NO
SIGNIFICANT WEATHER AND/OR OBSTRUCTIONS TO VISIBILITY. N/A MEANS
CURRENT SKY AND/OR WEATHER CONDITIONS ARE NOT AVAILABLE.

MNZ060>063-068>070-091000-
   Twin Cities Metro

CITY           SKY/WX    TMP DP  RH WIND       PRES   REMARKS
TWIN CITIES    CLOUDY    16  10  77 NW7       30.54S WCI   6
ST PAUL        CLOUDY    17  12  80 NW9       30.56R WCI   6
CRYSTAL        CLOUDY    15   7  70 NW7       30.54R WCI   5
BLAINE         CLOUDY    16  10  79 W10       30.53S WCI   3
LAKEVILLE      FLURRIES   9   9 100 W8        30.54S WCI  -4
EDEN PRAIRIE   CLOUDY    14   9  80 W7        30.54R WCI   4
SOUTH ST PAUL  CLOUDY    18  12  77 NW5       30.54S WCI  11
LAKE ELMO      FAIR      14  10  85 W5        30.54S WCI   6
$$
MNZ001>005-007-008-013>017-022>024-027-028-091000-
   Northwest Minnesota

CITY           SKY/WX    TMP DP  RH WIND       PRES   REMARKS
BEMIDJI        CLOUDY     5   0  79 NW7       30.50S WCI  -7
HALLOCK        CLOUDY     9   3  78 N3        30.57S
ROSEAU         CLOUDY     5   0  78 N6        30.53F WCI  -6
WARROAD        CLOUDY     3  -2  78 W9        30.53S WCI -11
THIEF RVR FALL FLURRIES   6   2  83 NW5       30.55S WCI  -3
CROOKSTON      LGT SNOW   9   5  85 NW9       30.58S WCI  -5
FOSSTON        CLOUDY     3   0  85 NW3       30.53S
DETROIT LAKES  FLURRIES   7   5  92 NW7       30.53S WCI  -5
MOORHEAD       CLOUDY     7   1  78 W8        30.59S WCI  -6
PARK RAPIDS    CLOUDY     8   2  76 W6        30.49S WCI  -2
$$
MNZ006-009>011-018-025>026-091000-
   North Central Minnesota

CITY           SKY/WX    TMP DP  RH WIND       PRES   REMARKS
BAUDETTE       CLOUDY     4  -4  69 NW12      30.50R WCI -12
FLAG ISLAND    CLOUDY     5   0  78 W16       30.50S WCI -14
INTL FALLS     CLOUDY    10   5  80 W8        30.46R HAZE    WCI  -2
WASKISH        CLOUDY     5   1  85 NW6       30.51S WCI  -6
BIG FORK       FLURRIES   7   3  85 W3        30.47S
LONGVILLE      LGT SNOW  10   7  85 NW5       30.49S WCI   2
GRAND RAPIDS   FLURRIES   9   5  84 NW10      30.48R WCI  -5
CRANE LAKE     FLURRIES  10   7  85 W8        30.46R WCI  -1
ORR            CLOUDY    10   3  72 CALM      30.42R
COOK           CLOUDY     9   3  78 NW6       30.44S WCI  -1
$$
MNZ012-019>021-037-091000-
   Northeast Minnesota

CITY           SKY/WX    TMP DP  RH WIND       PRES   REMARKS
DULUTH         FLURRIES  12   6  77 N7        30.42S WCI   1
ELY            LGT SNOW   9   7  92 CALM      30.40S
HIBBING        LGT SNOW  10   6  84 NW7       30.44S FOG     WCI  -1
EVELETH        MOCLDY    12   5  73 NW10      30.44S WCI  -1
DULUTH HARBOR  PTCLDY    18   9  68 CALM      30.51R
TWO HARBORS    MOCLDY    18   9  68 NW5       30.43R WCI  11
SILVER BAY     PTCLDY    10   7  85 CALM      30.42R
GRAND MARAIS     N/A     18   8  65 CALM      30.43S
G MARAIS ARPRT LGT SNOW   9   3  78 CALM      30.32S
$$
MNZ029>031-032-039>041-046>048-054>057-064-091000-
   West Central Minnesota

CITY           SKY/WX    TMP DP  RH WIND       PRES   REMARKS
FERGUS FALLS   FLURRIES   3   0  85 NW8       30.62S WCI -10
WHEATON        CLOUDY     3  -2  78 W9        30.62S WCI -11
MORRIS         CLOUDY     3   0  85 W9        30.58R WCI -11
ALEXANDRIA     PTCLDY     1  -2  87 W7        30.53S WCI -12
ELBOW LAKE     LGT SNOW   4   0  86 NW9       30.57S WCI -11
WADENA         FLURRIES   7   3  85 W5        30.51S WCI  -2
GLENWOOD       CLEAR      0  -4  85 W6        30.54S WCI -12
APPLETON       CLEAR      1  -2  85 W7        30.61R WCI -11
BENSON         PTCLDY     0  -6  78 NW5       30.58S WCI -10
ORTONVILLE     CLEAR      1  -6  71 CALM      30.60S
MADISON        CLEAR      3   0  85 W6        30.61S WCI  -8
WILLMAR        FAIR       3   1  92 NW7       30.58S WCI  -9
$$
MNZ033>034-036-042>043-049>051-058-059-091000-
   Central Minnesota

CITY           SKY/WX    TMP DP  RH WIND       PRES   REMARKS
ST CLOUD       CLOUDY    13   9  84 W8        30.53R WCI   2
PAYNESVILLE    CLOUDY     4   1  87 W9        30.55S WCI -10
AITKIN         LGT SNOW  14   9  79 CALM      30.47S
PINE RIVER     CLOUDY     9   5  85 NW6       30.52S WCI  -1
BRAINERD       CLOUDY    11   7  84 NW10      30.50R WCI  -3
STAPLES        CLOUDY     9   5  85 NW7       30.51S WCI  -3
LONG PRAIRIE   FAIR       3   1  92 W7        30.53R WCI  -9
LITTLE FALLS   CLOUDY    12   9  85 W7        30.53R WCI   2
LITCHFIELD     CLOUDY     9   7  92 W9        30.56R WCI  -5
BUFFALO        CLOUDY    13   9  83 W6        30.56R WCI   4
MAPLE LAKE     CLOUDY    14  10  87 W7        30.55R WCI   3
HUTCHINSON     CLOUDY    10   7  85 W10       30.56S WCI  -4
$$
MNZ037-044-045-052-053-091000-
   East Central Minnesota

CITY           SKY/WX    TMP DP  RH WIND       PRES   REMARKS
PRINCETON      CLOUDY    14  10  85 W6        30.52S WCI   5
MORA           CLOUDY    12   9  85 CALM      30.52S
CAMBRIDGE      MOCLDY    12   7  79 W5        30.51R WCI   4
RUSH CITY      PTCLDY    10   9  92 W5        30.52S WCI   2
MOOSE LAKE     CLOUDY    16  10  79 NW5       30.46S WCI   9
HINCKLEY       PTSUNNY   12  10  92 W3        30.50R
CLOQUET        FLURRIES  12   7  79 CALM      30.45R
MCGREGOR       CLOUDY    16  12  86 W6        30.48R WCI   7
$$
MNZ071>073-080-081-089-090-097-098-091000-
   Southwest Minnesota

CITY           SKY/WX    TMP DP  RH WIND       PRES   REMARKS
MONTEVIDEO     CLEAR      1  -2  85 NW3       30.62R
GRANITE FALLS  CLEAR      4   0  83 W8        30.62S WCI -10
CANBY          CLEAR      3  -2  81 CALM      30.61R
MARSHALL       CLEAR      2  -3  80 NW7       30.60S WCI -11
REDWOOD FALLS  PTCLDY     4  -1  80 W8        30.59S WCI  -9
OLIVIA         CLEAR      7   1  78 NW10      30.58S WCI  -8
PIPESTONE      CLEAR      1  -2  85 W6        30.54S WCI -10
WINDOM         CLEAR      5   1  85 CALM      30.56S
WORTHINGTON    CLEAR      3  -1  83 W8        30.56R WCI -10
JACKSON        CLEAR      5   1  85 NW8       30.56S WCI  -8
TRACY          CLEAR      5   1  83 NW6       30.58S WCI  -6
SLAYTON        CLEAR      1  -2  87 W6        30.55S WCI -11
$$
MNZ065>067-074>077-082>085-091>093-091000-
   South Central Minnesota

CITY           SKY/WX    TMP DP  RH WIND       PRES   REMARKS
MANKATO        FLURRIES  10   6  84 W9        30.57R WCI  -3
NEW ULM        CLEAR      7   1  78 W12       30.58S WCI  -9
ST JAMES       CLEAR      7   3  85 W12       30.59S WCI  -9
FAIRMONT       FLURRIES   9   5  84 NW15      30.57S WCI  -8
GLENCOE        CLOUDY    12   9  90 W9        30.56R WCI  -1
OWATONNA       FLURRIES  12   9  85 W8        30.53S WCI   1
WASECA         FLURRIES  12   9  85 W13       30.56R WCI  -3
ALBERT LEA     FLURRIES  16  12  86 W3        30.53R
$$
MNZ078>079-086>088-094>096-091000-
   Southeast Minnesota

CITY           SKY/WX    TMP DP  RH WIND       PRES   REMARKS
ROCHESTER      LGT SNOW  13  10  88 NW10      30.50R FOG     WCI   0
RED WING       CLEAR     18  10  73 NW6       30.52S WCI   9
STANTON        CLOUDY    15  11  82 NW8       30.53S WCI   5
DODGE CENTER   FLURRIES  12   9  85 W9        30.50S WCI   0
WINONA         FLURRIES  21  16  79 NW9       30.52S WCI  11
AUSTIN         LGT SNOW  12   9  85 W12       30.52R WCI  -2
PRESTON        FLURRIES  13   9  85 NW10      30.50S WCI   0
$$
ABBREVIATIONS USED IN REMARKS
   TC - TEMPERATURES IN CELSIUS
  WCI - WIND CHILL INDEX
   HX - HEAT INDEX
  VSB - VISIBILITY
$$



USA.gov is the U.S. government's official web portal to all federal, state and local government web resources and services.